Regional Weather Roundup
Issued by NWS

Home | Current Version | Previous Version | Graphics & Text | Print | Product List | Glossary On
Versions: 1 2 3 4 5 6 7 8 9 10 11 12 13 14 15 16 17 18 19 20 21 22 23 24 25 26 27 28 29 30 31 32 33 34 35 36 37 38 39 40 41 42 43 44 45 46 47 48 49 50
443
ASUS44 KJAN 311010
RWRMS

MISSISSIPPI HOURLY WEATHER ROUNDUP
NATIONAL WEATHER SERVICE JACKSON MS
500 AM CDT TUE MAR 31 2015

NOTE: "FAIR: INDICATES FEW OR NO CLOUDS BELOW 12,000 FEET WITH NO
SIGNIFICANT WEATHER AND/OR OBSTRUCTIONS TO VISIBILITY.

MSZ001>002-007>008-010>013-018>021-025>028-034>036-311100-
NORTHWEST MISSISSIPPI

CITY           SKY/WX    TMP DP  RH WIND       PRES   REMARKS
CLARKSDALE     MOCLDY    55  54  94 CALM      30.02S
CLEVELAND      FAIR      58  56  94 S5        30.01S
GREENWOOD      MOCLDY    56  52  86 CALM      30.03S
GREENVILLE     NOT AVBL
OLIVE BRANCH   PTCLDY    52  50  93 S6        30.00F
OXFORD         FAIR      54  45  71 SE5       30.04R
TUNICA         MOSUNNY   54  50  87 S6        30.02S
$$

MSZ003>006-009-014>017-022>024-029>033-037>039-311100-
NORTHEAST MISSISSIPPI

CITY           SKY/WX    TMP DP  RH WIND       PRES   REMARKS
COLUMBUS AFB   CLEAR     49  49 100 SE2       30.03S
CORINTH        FAIR      46  45  93 CALM      30.02R
GOLDN TRIANGLE PTCLDY    52  48  87 CALM      30.03S
STARKVILLE     FAIR      48  48 100 CALM      30.04S FOG
TUPELO         MOCLDY    51  48  89 CALM      30.03S
$$

MSZ040-058-311100-
CENTRAL MISSISSIPPI

CITY           SKY/WX    TMP DP  RH WIND       PRES   REMARKS
JACKSON INTL   CLEAR     60  56  86 S5        30.06S
JACKSON HAWKNS CLEAR     63  57  81 SW7       30.06S
MERIDIAN KEY   PTCLDY    54  53  97 S6        30.06S
MERIDIAN NAS   NOT AVBL
RAYMOND        FAIR      61  55  82 MISG      30.05F
VICKSBURG      CLEAR     63  58  83 SW5       30.05F
$$

MSZ059>079-311100-
SOUTH MISSISSIPPI

CITY           SKY/WX    TMP DP  RH WIND       PRES   REMARKS
BROOKHAVEN       N/A     57  57 100 S3        30.09S
HATTIESBURG    CLEAR     65  59  81 SW8       30.08F
MCCOMB         FOG       57  57 100 CALM      30.08S VSB 3/4
NATCHEZ        PTCLDY    61  55  82 S5        30.07S
PINE BELT      CLEAR     57  54  88 CALM      30.08S
$$

MSZ080>082-311100-
COASTAL MISSISSIPPI

CITY           SKY/WX    TMP DP  RH WIND       PRES   REMARKS
BILOXI         CLEAR     66  63  91 W6        30.09S
PASCAGOULA     CLEAR     64  63  96 CALM      30.09F
GULFPORT       CLEAR     64  62  93 W3        30.09S
$$



USA.gov is the U.S. government's official web portal to all federal, state and local government web resources and services.